�N����,����,����,����,����,�C��,���x,�~����,���Ǝ���,�S�V����,�ő�u�ԕ���,,,
,,,,,,,,,,����,����,����,�N��
yyyy/mm/dd,hh:mm:ss,(16),16����,m/s,��,%,mm,min,KW/�u,(16),16����,m/s,Time
2011/8/1,1:00:00,45,�k��,2.3,15.5,95.6,0,0,0.01,45,�k��,3.5,52
2011/8/1,2:00:00,45,�k��,3.1,15,92.9,0,0,0.01,45,�k��,4.7,59
2011/8/1,3:00:00,45,�k��,1.6,14.7,95.1,0,0,0.01,45,�k��,4.9,0
2011/8/1,4:00:00,23,�k�k��,1.8,14.3,95.5,0,0,0.01,360,�k,3.1,33
2011/8/1,5:00:00,23,�k�k��,1.8,14.3,96.1,0,0,0.01,23,�k�k��,2.6,19
2011/8/1,6:00:00,45,�k��,1.8,14.7,94.9,0,0,0.06,23,�k�k��,3.3,16
2011/8/1,7:00:00,68,���k��,2.8,15.6,91.7,0,42,0.15,45,�k��,4.3,52
2011/8/1,8:00:00,45,�k��,2,15.7,88.5,0,60,0.21,68,���k��,4.2,20
2011/8/1,9:00:00,68,���k��,2.9,16.6,88.1,0,60,0.29,90,��,4.6,48
2011/8/1,10:00:00,90,��,2,16.5,87.9,0,60,0.38,68,���k��,3.4,0
2011/8/1,11:00:00,113,���쓌,2.4,17.8,81.8,0,60,0.66,113,���쓌,3.8,59
2011/8/1,12:00:00,90,��,2.2,18.9,82.8,0,60,1,68,���k��,4.4,38
2011/8/1,13:00:00,90,��,2.9,18.3,81.9,0,60,0.97,113,���쓌,5,55
2011/8/1,14:00:00,113,���쓌,3.2,18.4,83.7,0,60,0.88,113,���쓌,5.6,43
2011/8/1,15:00:00,135,�쓌,3.4,17.3,80.7,0,60,0.75,135,�쓌,5.8,51
2011/8/1,16:00:00,113,���쓌,3.1,17.4,81.9,0,60,0.58,180,��,5.3,17
2011/8/1,17:00:00,113,���쓌,2.2,17.3,84.6,0,60,0.39,135,�쓌,4.8,5
2011/8/1,18:00:00,135,�쓌,2.6,15.7,89.5,0,49,0.18,113,���쓌,4.4,14
2011/8/1,19:00:00,135,�쓌,2.1,15,93.3,0,0,0.04,113,���쓌,4,28
2011/8/1,20:00:00,90,��,1.6,14.6,94.1,0,0,0.01,113,���쓌,3.8,3
2011/8/1,21:00:00,360,�k,1.7,14.6,94.6,0,0,0.01,135,�쓌,3.2,40
2011/8/1,22:00:00,68,���k��,1.9,14.5,94.2,0,0,0.01,180,��,3.4,36
2011/8/1,23:00:00,68,���k��,1.8,14.4,94.9,0,0,0.01,23,�k�k��,3,38
2011/8/1,0:00:00,45,�k��,1.4,14.4,92.9,0,0,0.01,68,���k��,3.2,1
2011/8/2,1:00:00,315,�k��,1.5,14.2,94,0,0,0.01,270,��,2.7,47
2011/8/2,2:00:00,270,��,1.6,14,94.6,0,0,0.01,270,��,2.6,9
2011/8/2,3:00:00,270,��,1.4,14,94.6,0,0,0.01,293,���k��,2.7,6
2011/8/2,4:00:00,293,���k��,1.9,13.8,94,0,0,0.01,293,���k��,3.1,56
2011/8/2,5:00:00,315,�k��,0.8,13.7,93.2,0,0,0.02,293,���k��,2.6,3
2011/8/2,6:00:00,338,�k�k��,1.1,14.1,91.7,0,0,0.09,315,�k��,2.2,42
2011/8/2,7:00:00,158,��쓌,0.5,14.6,91.5,0,28,0.13,360,�k,2,15
2011/8/2,8:00:00,113,���쓌,1.3,15.2,88.7,0,60,0.24,180,��,2.9,40
2011/8/2,9:00:00,90,��,1.9,16,86.3,0,60,0.32,23,�k�k��,3.2,52
2011/8/2,10:00:00,158,��쓌,2,16.1,86,0,60,0.42,135,�쓌,3.6,34
2011/8/2,11:00:00,158,��쓌,1.3,17.2,84.9,0,60,0.59,113,���쓌,4.3,12
2011/8/2,12:00:00,135,�쓌,2,16.3,85.2,0,60,0.55,135,�쓌,4.8,25
2011/8/2,13:00:00,113,���쓌,3.1,16.9,78.7,0,60,0.76,158,��쓌,5.4,42
2011/8/2,14:00:00,113,���쓌,1.9,16.7,83.9,0,60,0.51,113,���쓌,4.6,22
2011/8/2,15:00:00,135,�쓌,2.5,16.6,84.1,0,60,0.43,113,���쓌,5.2,37
2011/8/2,16:00:00,135,�쓌,2.5,16.5,85.4,0,60,0.36,113,���쓌,4.3,16
2011/8/2,17:00:00,135,�쓌,2.8,16.6,82.6,0,60,0.38,158,��쓌,5.3,51
2011/8/2,18:00:00,135,�쓌,1.3,16.2,89.2,0,33,0.15,158,��쓌,4.5,14
2011/8/2,19:00:00,158,��쓌,0.7,15.6,93.2,0,0,0.03,180,��,1.9,58
2011/8/2,20:00:00,180,��,1.2,15.7,92.9,0,0,0.01,158,��쓌,3.8,14
2011/8/2,21:00:00,180,��,1,15.9,94,0,0,0.01,203,��쐼,3,0
2011/8/2,22:00:00,135,�쓌,1.4,15.9,93.9,0,0,0.01,180,��,2.9,15
2011/8/2,23:00:00,270,��,0.8,15.9,95.7,0,0,0.01,158,��쓌,3.3,5
2011/8/2,0:00:00,315,�k��,1.2,15.7,96.4,0,0,0.01,270,��,1.8,9
2011/8/3,1:00:00,315,�k��,1.3,15.4,97.5,0,0,0.01,293,���k��,2.3,46
2011/8/3,2:00:00,293,���k��,2.1,15.2,98.3,0,0,0.01,293,���k��,3.4,55
2011/8/3,3:00:00,270,��,1.5,15.1,98.6,0,0,0.01,293,���k��,2.9,1
2011/8/3,4:00:00,270,��,2.1,14.8,98.7,0,0,0.01,293,���k��,2.9,36
2011/8/3,5:00:00,270,��,1.5,14.8,98.8,0,0,0.01,270,��,2.8,0
2011/8/3,6:00:00,270,��,1.7,15,98.8,0,0,0.06,270,��,2.7,48
2011/8/3,7:00:00,315,�k��,0.6,16.1,97.8,0,47,0.16,270,��,2.7,47
2011/8/3,8:00:00,315,�k��,0.5,17.6,87.8,0,60,0.36,360,�k,2.2,1
2011/8/3,9:00:00,90,��,1.6,20.3,85.1,0,60,0.69,68,���k��,3.2,36
2011/8/3,10:00:00,113,���쓌,2.4,20.5,87,0,60,0.86,113,���쓌,4.3,41
2011/8/3,11:00:00,135,�쓌,2,19.9,85.1,0,60,0.97,135,�쓌,4.9,26
2011/8/3,12:00:00,135,�쓌,2.6,19.2,85.5,0,60,0.92,113,���쓌,4.6,14
2011/8/3,13:00:00,113,���쓌,2.6,19.9,90.2,0,60,0.71,135,�쓌,4.7,13
2011/8/3,14:00:00,113,���쓌,2.4,19.6,91.1,0,60,0.37,113,���쓌,4.8,44
2011/8/3,15:00:00,135,�쓌,2.3,19,94.3,0,60,0.25,113,���쓌,4.6,1
2011/8/3,16:00:00,113,���쓌,1.7,18.8,96.6,0,56,0.16,135,�쓌,4.3,3
2011/8/3,17:00:00,113,���쓌,2.1,18.6,97.3,0,4,0.09,113,���쓌,3.4,12
2011/8/3,18:00:00,90,��,2.2,18.1,97.9,0,0,0.05,90,��,4,14
2011/8/3,19:00:00,113,���쓌,1.4,18.6,98.3,0,0,0.02,135,�쓌,3.8,16
2011/8/3,20:00:00,293,���k��,0.8,18.5,98.2,0,0,0.01,158,��쓌,3,29
2011/8/3,21:00:00,293,���k��,2.1,18.3,98.5,0,0,0.01,293,���k��,3.1,52
2011/8/3,22:00:00,293,���k��,1.1,18.3,98.5,0,0,0.01,315,�k��,3.1,20
2011/8/3,23:00:00,293,���k��,1.3,18.4,98.5,0,0,0.01,293,���k��,3.4,55
2011/8/3,0:00:00,203,��쐼,0.3,18.5,98.3,0,0,0.01,293,���k��,2.9,10
2011/8/4,1:00:00,248,���쐼,0.6,18.5,98.3,0,0,0.01,203,��쐼,1.6,20
2011/8/4,2:00:00,248,���쐼,0.6,16.8,97.4,0,0,0.01,293,���k��,2,43
2011/8/4,3:00:00,135,�쓌,1.1,18,98.5,0,0,0.01,135,�쓌,1.5,58
2011/8/4,4:00:00,68,�É�,0.2,17.8,98.4,0,0,0.01,135,�쓌,1.3,2
2011/8/4,5:00:00,270,��,0.5,17.1,98.6,0,0,0.02,360,�k,0.8,40
2011/8/4,6:00:00,293,���k��,0.7,18.8,98.4,0,18,0.1,270,��,1.3,49
2011/8/4,7:00:00,90,��,0.6,20,95.2,0,59,0.17,113,���쓌,1.5,48
2011/8/4,8:00:00,68,���k��,1,21.9,84.9,0,60,0.45,113,���쓌,2.9,26
2011/8/4,9:00:00,135,�쓌,2.8,21,86.1,0,60,0.62,135,�쓌,4.4,57
2011/8/4,10:00:00,135,�쓌,0.3,21.5,84.6,0,60,0.63,113,���쓌,5.4,19
2011/8/4,11:00:00,135,�쓌,2.4,22.1,81.5,0,60,0.84,90,��,4.6,10
2011/8/4,12:00:00,135,�쓌,3.3,21.9,85.7,0,60,0.8,113,���쓌,5.7,46
2011/8/4,13:00:00,113,���쓌,2.9,20.8,88.9,0,60,0.5,158,��쓌,5.3,6
2011/8/4,14:00:00,135,�쓌,2.7,21.2,86.6,0,60,0.51,68,���k��,5,8
2011/8/4,15:00:00,113,���쓌,2.4,20.6,91.6,0,58,0.32,113,���쓌,4.8,5
2011/8/4,16:00:00,113,���쓌,2.3,20.2,92.6,0,51,0.14,113,���쓌,4.1,49
2011/8/4,17:00:00,113,���쓌,1.9,20,93.5,0,0,0.08,90,��,3.7,27
2011/8/4,18:00:00,90,��,2.3,19.8,94.4,0,0,0.04,68,���k��,3.7,30
2011/8/4,19:00:00,90,��,1.8,19.5,95.7,0,0,0.01,90,��,3.2,16
2011/8/4,20:00:00,113,���쓌,1.4,19,97.9,0,0,0.01,90,��,2.9,0
2011/8/4,21:00:00,45,�k��,1,18.9,98.4,0,0,0.01,135,�쓌,2,1
2011/8/4,22:00:00,23,�k�k��,0.9,18.7,98.5,0,0,0.01,45,�k��,2,49
2011/8/4,23:00:00,338,�k�k��,0.9,18.8,98.6,0,0,0.01,360,�k,2,45
2011/8/4,0:00:00,338,�k�k��,1.4,18.8,98.7,0,0,0.01,293,���k��,2.8,42
2011/8/5,1:00:00,293,���k��,1.2,18.8,98.6,0,0,0.01,23,�k�k��,2.4,5
2011/8/5,2:00:00,315,�k��,0.7,18.8,98.5,0,0,0.01,338,�k�k��,2.7,45
2011/8/5,3:00:00,338,�k�k��,0.8,18.8,98.5,0,0,0.01,338,�k�k��,2.1,52
2011/8/5,4:00:00,338,�k�k��,0.8,18.7,98.4,0,0,0.01,360,�k,2.2,24
2011/8/5,5:00:00,293,���k��,0.4,18.9,98.4,0,0,0.01,315,�k��,1.3,44
2011/8/5,6:00:00,23,�k�k��,1.8,19.2,98.2,0,0,0.04,23,�k�k��,2.9,58
2011/8/5,7:00:00,315,�k��,1,19.9,97.3,0,37,0.12,23,�k�k��,2.3,0
2011/8/5,8:00:00,45,�k��,1.5,21,94.9,0,60,0.22,68,���k��,2.6,10
2011/8/5,9:00:00,45,�k��,1.5,21.4,95,0,60,0.26,68,���k��,2.8,48
2011/8/5,10:00:00,90,��,1.7,21.5,95.4,0,60,0.34,68,���k��,3.4,8
2011/8/5,11:00:00,90,��,3.2,21.8,93.9,0,60,0.38,90,��,4.1,56
2011/8/5,12:00:00,90,��,3.2,22.7,89.6,0,60,0.46,90,��,4.2,52
2011/8/5,13:00:00,113,���쓌,0.5,23,88.4,0,60,0.52,68,���k��,3.8,1
2011/8/5,14:00:00,90,��,1.9,21.4,91.7,0,60,0.37,135,�쓌,3.3,16
2011/8/5,15:00:00,68,���k��,1.7,21.9,92.5,0,60,0.26,135,�쓌,3.4,26
2011/8/5,16:00:00,90,��,2.4,21.4,91.7,0,60,0.34,90,��,3.5,28
2011/8/5,17:00:00,90,��,2.8,20.7,93.8,0,50,0.18,113,���쓌,4.4,59
2011/8/5,18:00:00,113,���쓌,1.9,19.9,96.7,0,0,0.06,135,�쓌,4.1,17
2011/8/5,19:00:00,360,�k,1.3,19.6,97.7,0,0,0.01,68,���k��,3,17
2011/8/5,20:00:00,68,���k��,1,19.8,98.1,0,0,0.01,45,�k��,2.1,43
2011/8/5,21:00:00,90,��,0.9,19.8,98.1,0,0,0.01,90,��,2.4,46
2011/8/5,22:00:00,360,�k,0.9,19.5,98.4,0,0,0.01,90,��,2.9,35
2011/8/5,23:00:00,23,�k�k��,0.6,19.6,98.6,0,0,0.01,68,���k��,2.1,32
2011/8/5,0:00:00,45,�k��,1.2,19.6,98.6,0,0,0.01,45,�k��,2.1,28
2011/8/6,1:00:00,360,�k,1.7,19.5,98.7,0.5,0,0.01,360,�k,2.2,50
2011/8/6,2:00:00,90,��,1.3,19.6,98.7,0,0,0.01,338,�k�k��,2.4,18
2011/8/6,3:00:00,293,���k��,1.3,19.6,98.7,0,0,0.01,270,��,1.8,53
2011/8/6,4:00:00,360,�k,1.5,19.7,98.7,0,0,0.01,315,�k��,2.3,52
2011/8/6,5:00:00,293,���k��,1.5,19.9,98.8,0,0,0.01,270,��,2,58
2011/8/6,6:00:00,270,��,1.2,20.4,98.7,0,0,0.06,270,��,2,36
2011/8/6,7:00:00,248,���쐼,0.9,20.9,98.3,0,47,0.16,270,��,2.2,21
2011/8/6,8:00:00,360,�k,1.4,22.6,96.1,0,60,0.24,338,�k�k��,2.4,45
2011/8/6,9:00:00,90,��,1.4,22.8,91.7,0,60,0.41,45,�k��,2.7,5
2011/8/6,10:00:00,113,���쓌,2,24.7,86.9,0,60,0.66,90,��,3.6,46
2011/8/6,11:00:00,113,���쓌,2.7,24.3,84.8,0,60,0.91,135,�쓌,4.4,55
2011/8/6,12:00:00,135,�쓌,3.5,23,88.8,0,60,0.84,113,���쓌,5.3,45
2011/8/6,13:00:00,158,��쓌,3.3,22.8,85.6,0,60,0.87,158,��쓌,5.4,54
2011/8/6,14:00:00,135,�쓌,3.1,23.5,86.1,0,60,0.83,158,��쓌,5.3,17
2011/8/6,15:00:00,158,��쓌,3,22.8,84.3,0,60,0.67,135,�쓌,5.1,43
2011/8/6,16:00:00,135,�쓌,2.7,21.6,90.4,0,60,0.47,135,�쓌,4.3,0
2011/8/6,17:00:00,68,���k��,2.8,20.6,94.8,0,32,0.14,68,���k��,4.9,52
2011/8/6,18:00:00,90,��,1.3,22,90.3,0,29,0.12,45,�k��,7.5,13
2011/8/6,19:00:00,225,�쐼,1.8,21.2,94.8,0,0,0.02,225,�쐼,2.9,57
2011/8/6,20:00:00,270,��,1.7,20.3,97,0,0,0.01,270,��,2.3,59
2011/8/6,21:00:00,90,��,2.5,20.2,96,0,0,0.01,315,�k��,4.1,24
2011/8/6,22:00:00,68,���k��,1.2,19.6,97.3,0,0,0.01,113,���쓌,3.2,14
2011/8/6,23:00:00,248,���쐼,1.3,18.7,98.1,0,0,0.01,248,���쐼,2.6,35
2011/8/6,0:00:00,248,���쐼,1.2,18.9,98.3,0,0,0.01,270,��,2.1,32
2011/8/7,1:00:00,270,��,1.4,19.7,98.6,0,0,0.01,293,���k��,2.2,22
2011/8/7,2:00:00,270,��,0.9,18.7,98.5,0,0,0.01,270,��,2.2,39
2011/8/7,3:00:00,45,�k��,2.1,19.4,98.7,0,0,0.01,45,�k��,2.9,53
2011/8/7,4:00:00,23,�k�k��,1.2,19.8,98.7,0,0,0.01,23,�k�k��,3.4,12
2011/8/7,5:00:00,315,�k��,0.7,20.1,98.7,0,0,0.02,360,�k,1.9,7
2011/8/7,6:00:00,180,��,1.5,20.7,98.7,0,39,0.13,90,��,2.4,50
2011/8/7,7:00:00,45,�k��,2.1,21,98.6,0,44,0.17,45,�k��,3.2,56
2011/8/7,8:00:00,113,���쓌,1.4,21.9,98.3,0,60,0.32,68,���k��,2.9,23
2011/8/7,9:00:00,113,���쓌,1.5,22.2,95.2,0,60,0.57,90,��,2.8,49
2011/8/7,10:00:00,113,���쓌,3.2,23.8,88.5,0,60,0.68,113,���쓌,4.9,43
2011/8/7,11:00:00,113,���쓌,3.1,23.1,86.6,0,60,0.88,90,��,5,0
2011/8/7,12:00:00,113,���쓌,3.6,22.8,85.4,0,60,0.71,113,���쓌,6.3,38
2011/8/7,13:00:00,113,���쓌,3.2,21.3,90.6,0,60,0.48,113,���쓌,6.1,47
2011/8/7,14:00:00,135,�쓌,3,19.7,96.9,0,29,0.19,90,��,5.6,0
2011/8/7,15:00:00,203,��쐼,1.8,20,95.7,0,19,0.12,113,���쓌,3.8,0
2011/8/7,16:00:00,90,��,2,20.9,96.3,0,25,0.14,90,��,3.5,54
2011/8/7,17:00:00,90,��,2.1,21,91.8,0,48,0.24,90,��,3.8,45
2011/8/7,18:00:00,90,��,2,20.2,96.6,0,0,0.04,315,�k��,3.2,46
2011/8/7,19:00:00,90,��,1.8,19.8,98,0,0,0.02,68,���k��,3.3,48
2011/8/7,20:00:00,23,�k�k��,2.1,19.7,98.4,0,0,0.01,90,��,3.6,16
2011/8/7,21:00:00,90,��,1.6,19.4,98.5,0,0,0.01,68,���k��,2.8,38
2011/8/7,22:00:00,225,�쐼,1.1,19.5,98.6,0,0,0.01,113,���쓌,2.5,6
2011/8/7,23:00:00,113,���쓌,1,19.7,98.7,0,0,0.01,248,���쐼,2.2,9
2011/8/7,0:00:00,113,���쓌,0.6,18.7,98.8,0,0,0.01,113,���쓌,2.1,25
2011/8/8,1:00:00,68,���k��,1.1,18.7,98.9,0,0,0.01,68,���k��,1.8,18
2011/8/8,2:00:00,45,�k��,1.4,18.7,98.9,0,0,0.01,45,�k��,2.3,30
2011/8/8,3:00:00,338,�k�k��,1,18.8,98.9,0,0,0.01,90,��,2,15
2011/8/8,4:00:00,248,���쐼,1.6,18.8,99,0,0,0.01,158,��쓌,2.4,25
2011/8/8,5:00:00,360,�k,0.8,19.1,99,0,0,0.01,203,��쐼,2.3,19
2011/8/8,6:00:00,270,��,0.7,19.2,98.9,0,0,0.06,68,���k��,1.9,18
2011/8/8,7:00:00,225,�쐼,1.3,20.2,98.8,0,47,0.16,225,�쐼,2.1,54
2011/8/8,8:00:00,270,��,2,21.4,98.3,0,60,0.24,23,�k�k��,3,52
2011/8/8,9:00:00,135,�쓌,1.4,21.8,96.8,0,60,0.35,293,���k��,3,9
2011/8/8,10:00:00,135,�쓌,2.5,21.4,89.8,0,60,0.5,158,��쓌,4.5,57
2011/8/8,11:00:00,135,�쓌,3.6,20.6,90.9,0,60,0.59,135,�쓌,5.5,45
2011/8/8,12:00:00,158,��쓌,3.6,21.1,92.7,0,60,0.53,135,�쓌,6.1,2
2011/8/8,13:00:00,158,��쓌,3.3,21.3,87.1,0,60,0.65,158,��쓌,5.8,34
2011/8/8,14:00:00,158,��쓌,3.4,20.7,88.7,0,60,0.51,180,��,5.2,52
2011/8/8,15:00:00,158,��쓌,2.9,20.1,93.3,0,56,0.27,180,��,5,8
2011/8/8,16:00:00,135,�쓌,2.8,19.8,96,0,60,0.17,135,�쓌,4.8,44
2011/8/8,17:00:00,135,�쓌,2.7,19,97.3,0,18,0.09,135,�쓌,5,38
2011/8/8,18:00:00,90,��,2.3,18.8,98.3,0,0,0.03,135,�쓌,4.1,3
2011/8/8,19:00:00,68,���k��,1.8,18.8,98.5,0,0,0.01,90,��,3.8,22
2011/8/8,20:00:00,158,��쓌,2,18.9,98.7,0,0,0.01,158,��쓌,3.4,56
2011/8/8,21:00:00,113,���쓌,1.7,19,98.8,0,0,0.01,135,�쓌,3.7,23
2011/8/8,22:00:00,90,��,1.7,19.2,98.9,0,0,0.01,90,��,3,6
2011/8/8,23:00:00,68,���k��,1.4,18.9,98.9,0.5,0,0.01,68,���k��,2.1,56
2011/8/8,0:00:00,68,���k��,1,18.9,98.9,0,0,0.01,90,��,1.8,2
2011/8/9,1:00:00,45,�k��,1.4,18.9,99,0,0,0.01,23,�k�k��,2,53
2011/8/9,2:00:00,113,���쓌,0.5,18.9,99,0,0,0.01,45,�k��,2.2,16
2011/8/9,3:00:00,360,�k,0.8,19,99,0,0,0.01,293,���k��,1.4,51
2011/8/9,4:00:00,23,�k�k��,1.2,18.9,99,0,0,0.01,23,�k�k��,1.6,53
2011/8/9,5:00:00,113,���쓌,0.5,18.9,99,0,0,0.01,90,��,1.6,46
2011/8/9,6:00:00,113,���쓌,0.9,19.5,98.9,0,0,0.06,158,��쓌,1.9,23
2011/8/9,7:00:00,113,���쓌,1.4,19.5,98.9,0,10,0.09,90,��,2.1,52
2011/8/9,8:00:00,158,��쓌,1.2,19.8,98.8,0,59,0.15,68,���k��,2.3,41
2011/8/9,9:00:00,113,���쓌,1.1,20.5,98.6,0,60,0.22,68,���k��,2.4,35
2011/8/9,10:00:00,135,�쓌,1.8,20.5,98,0,60,0.32,90,��,3.1,56
2011/8/9,11:00:00,113,���쓌,2.3,21.2,96.7,0,60,0.44,90,��,3.5,42
2011/8/9,12:00:00,225,�쐼,3.1,21.6,90.6,0,60,0.58,225,�쐼,5.2,50
2011/8/9,13:00:00,225,�쐼,2.6,22.2,89.8,0,60,0.58,225,�쐼,5.1,30
2011/8/9,14:00:00,225,�쐼,2.9,21.4,91.7,0,60,0.58,225,�쐼,5.3,50
2011/8/9,15:00:00,225,�쐼,0.7,21.6,93.5,0,60,0.58,225,�쐼,4.3,10
2011/8/9,16:00:00,225,�쐼,1.5,22.1,89.7,0,60,0.39,225,�쐼,2.9,15
2011/8/9,17:00:00,203,��쐼,1.9,21,92.2,0,58,0.18,203,��쐼,2.6,54
2011/8/9,18:00:00,225,�쐼,1.4,19.9,95.1,0,0,0.04,225,�쐼,2.4,0
2011/8/9,19:00:00,225,�쐼,3,19,96,0,0,0.01,225,�쐼,4.5,55
2011/8/9,20:00:00,225,�쐼,1.3,18.6,97.3,0,0,0.01,203,��쐼,3.8,2
2011/8/9,21:00:00,315,�k��,1.2,18.1,98,0,0,0.01,315,�k��,1.8,55
2011/8/9,22:00:00,315,�k��,1.3,18.2,98.3,0,0,0.01,338,�k�k��,1.7,51
2011/8/9,23:00:00,315,�É�,0,17.9,98.2,0,0,0.01,315,�k��,1.5,0
2011/8/9,0:00:00,225,�É�,0,18,98.4,0,0,0.01,315,�k��,1.3,30
2011/8/10,1:00:00,338,�É�,0,18,98.5,0,0,0.01,293,���k��,0.6,15
2011/8/10,2:00:00,338,�k�k��,1.8,17.7,98.4,0,0,0.01,315,�k��,2.5,54
2011/8/10,3:00:00,315,�k��,0.8,18,98.6,0,0,0.01,315,�k��,1.7,58
2011/8/10,4:00:00,315,�k��,0.5,18.1,98.6,0,0,0.01,293,���k��,2.4,35
2011/8/10,5:00:00,338,�k�k��,0.6,18.9,98.7,0,0,0.01,338,�k�k��,2.6,14
2011/8/10,6:00:00,315,�k��,0.6,20,98.4,0,2,0.06,315,�k��,2,38
2011/8/10,7:00:00,248,���쐼,0.4,22.5,91.8,0,59,0.23,248,���쐼,1.6,59
2011/8/10,8:00:00,270,��,0.6,21.1,93.4,0,60,0.16,270,��,2.5,45
2011/8/10,9:00:00,248,���쐼,0.7,22,90,0,60,0.28,248,���쐼,2.9,12
2011/8/10,10:00:00,293,�É�,0,24.8,81.7,0,60,0.5,270,��,1.3,48
2011/8/10,11:00:00,225,�쐼,0.9,25.1,84.8,0.5,60,0.36,225,�쐼,2.5,43
2011/8/10,12:00:00,248,���쐼,2.3,24.1,83.8,0,60,0.59,225,�쐼,2.6,57
2011/8/10,13:00:00,203,��쐼,1,24.6,85.9,0,60,0.33,225,�쐼,3,18
2011/8/10,14:00:00,270,��,4.1,23.1,87.2,0,37,0.23,293,���k��,7.1,56
2011/8/10,15:00:00,270,��,1.9,22.7,95.1,1.5,16,0.1,270,��,6,5
2011/8/10,16:00:00,270,��,1.3,22.1,94.1,1.5,0,0.05,270,��,3,41
2011/8/10,17:00:00,225,�É�,0,22.2,93.2,0,0,0.06,270,��,4.6,16
2011/8/10,18:00:00,270,��,3.6,22,94.5,0.5,14,0.07,293,���k��,6.7,43
2011/8/10,19:00:00,293,���k��,3.6,23,94.2,0,0,0.02,293,���k��,7.6,20
2011/8/10,20:00:00,270,��,4.4,22.7,95.3,0,0,0.01,293,���k��,7.3,1
2011/8/10,21:00:00,270,��,4.1,22.1,93.5,0,0,0.01,270,��,7.8,50
2011/8/10,22:00:00,293,���k��,3.7,22.8,89.5,0,0,0.01,293,���k��,7.8,30
2011/8/10,23:00:00,270,��,2.8,22.7,87.3,0,0,0.01,293,���k��,6.9,3
2011/8/10,0:00:00,203,��쐼,3.9,24.9,78.4,0,0,0.01,203,��쐼,6.9,50
2011/8/11,1:00:00,248,���쐼,3.7,24.7,78.5,0,0,0.01,248,���쐼,7,0
2011/8/11,2:00:00,248,���쐼,3.2,24.7,79.5,0,0,0.01,248,���쐼,7.7,10
2011/8/11,3:00:00,225,�쐼,1.9,22.5,88.7,0,0,0.01,225,�쐼,4.3,0
2011/8/11,4:00:00,248,���쐼,1.3,20.6,95,0,0,0.01,23,�k�k��,3,29
2011/8/11,5:00:00,293,�É�,0.1,20.5,96.7,0,0,0.02,23,�k�k��,3.9,16
2011/8/11,6:00:00,45,�k��,2,22.3,93.3,0,12,0.1,45,�k��,4.3,55
2011/8/11,7:00:00,23,�k�k��,1.6,24.7,87.8,0,58,0.19,315,�k��,4,8
2011/8/11,8:00:00,270,��,1.5,27.9,76.4,0,60,0.44,68,���k��,3.4,12
2011/8/11,9:00:00,203,��쐼,2,26.5,83.2,0,60,0.45,203,��쐼,3.8,52
2011/8/11,10:00:00,180,��,2.2,29.8,74.8,0,60,0.69,180,��,3.7,57
2011/8/11,11:00:00,180,��,2.4,29,68.1,0,60,0.74,225,�쐼,5.7,14
2011/8/11,12:00:00,158,��쓌,2.3,29.2,61.4,0,60,0.93,203,��쐼,5.3,30
2011/8/11,13:00:00,90,��,1.2,31.7,58,0,60,0.89,158,��쓌,4.3,3
2011/8/11,14:00:00,113,���쓌,0.3,32.4,48.8,0,60,0.75,45,�k��,4,23
2011/8/11,15:00:00,270,��,5,31.1,55.6,0,60,0.7,270,��,11.8,47
2011/8/11,16:00:00,248,���쐼,4.8,29.2,58,0,60,0.52,248,���쐼,11.1,4
2011/8/11,17:00:00,248,���쐼,2.8,26.3,71.4,0,30,0.13,248,���쐼,7.2,5
2011/8/11,18:00:00,225,�쐼,1.8,25.3,76.4,0,0,0.07,248,���쐼,4.9,13
2011/8/11,19:00:00,203,��쐼,1,23.6,78,0,0,0.02,203,��쐼,3.1,59
2011/8/11,20:00:00,225,�쐼,4.1,25.2,71.1,0,0,0.01,225,�쐼,6.7,39
2011/8/11,21:00:00,225,�쐼,4.2,24.7,72.4,0,0,0.01,203,��쐼,7.1,29
2011/8/11,22:00:00,225,�쐼,3.4,23.7,73,0,0,0.01,225,�쐼,7.4,7
2011/8/11,23:00:00,248,���쐼,2.3,22.4,75,0,0,0.01,180,��,6.7,31
2011/8/11,0:00:00,270,��,2.5,22.7,72.2,0,0,0.01,270,��,7.4,35
2011/8/12,1:00:00,315,�k��,1.6,18.6,88.6,0,0,0.01,293,���k��,4.5,48
2011/8/12,2:00:00,293,���k��,1.7,17.2,95.6,0,0,0.01,270,��,2.8,0
2011/8/12,3:00:00,270,��,3,19.1,87.6,0,0,0.01,248,���쐼,4.6,55
2011/8/12,4:00:00,360,�k,1.2,17.1,93.3,0,0,0.01,203,��쐼,4.9,29
2011/8/12,5:00:00,225,�쐼,0.5,16.9,93.7,0,0,0.02,23,�k�k��,2.9,5
2011/8/12,6:00:00,225,�쐼,4.2,24,66.6,0,35,0.14,248,���쐼,6.9,53
2011/8/12,7:00:00,225,�쐼,2,26.3,61.4,0,60,0.32,225,�쐼,7.4,4
2011/8/12,8:00:00,248,���쐼,4.8,28,53.5,0,60,0.56,248,���쐼,8.3,54
2011/8/12,9:00:00,225,�쐼,4,28.6,54.4,0,60,0.71,248,���쐼,9,25
2011/8/12,10:00:00,270,��,6.4,29.6,46.6,0,60,0.81,293,���k��,13.8,31
2011/8/12,11:00:00,270,��,6.6,30,44.3,0,60,0.89,270,��,12.8,27
2011/8/12,12:00:00,270,��,5.7,30.8,41.4,0,60,1.03,248,���쐼,12.9,3
2011/8/12,13:00:00,338,�k�k��,2.1,29.6,58.8,0,60,0.54,270,��,11.8,7
2011/8/12,14:00:00,270,��,5.2,29.8,47.1,0,60,0.85,270,��,9.5,41
2011/8/12,15:00:00,270,��,5.2,29.6,51.6,0,60,0.71,248,���쐼,9.3,23
2011/8/12,16:00:00,270,��,4.4,29,48.9,0,60,0.55,248,���쐼,9,27
2011/8/12,17:00:00,270,��,2.4,27.1,61.2,0,60,0.33,270,��,7.5,21
2011/8/12,18:00:00,360,�k,1.1,25.6,60.4,0,43,0.16,315,�k��,4.2,5
2011/8/12,19:00:00,338,�k�k��,1.3,22.7,66.5,0,0,0.02,360,�k,4.4,3
2011/8/12,20:00:00,293,���k��,0.6,17.7,89.6,0,0,0.01,338,�k�k��,4.1,6
2011/8/12,21:00:00,293,���k��,1.1,16.7,92.2,0,0,0.01,270,��,4.4,17
2011/8/12,22:00:00,180,��,1.7,16.8,90.4,0,0,0.01,248,���쐼,3.2,11
2011/8/12,23:00:00,270,��,0.3,15.1,94.6,0,0,0.01,90,��,4.1,32
2011/8/12,0:00:00,23,�É�,0.2,14,96.4,0,0,0.01,315,�k��,1.7,39
2011/8/13,1:00:00,293,���k��,2.4,13.9,97.9,0,0,0.01,293,���k��,2.7,52
2011/8/13,2:00:00,270,��,2,14.2,97.7,0,0,0.01,293,���k��,2.7,45
2011/8/13,3:00:00,270,��,2,14.1,97.8,0,0,0.01,293,���k��,3.1,47
2011/8/13,4:00:00,293,���k��,0.6,13.4,97.8,0,0,0.01,293,���k��,3.2,5
2011/8/13,5:00:00,315,�k��,0.8,13.3,98.4,0,0,0.02,293,���k��,2.2,40
2011/8/13,6:00:00,293,���k��,0.8,16.4,94.7,0,36,0.14,293,���k��,2.4,16
2011/8/13,7:00:00,90,��,1.6,20.3,84.8,0,60,0.32,90,��,2.5,58
2011/8/13,8:00:00,90,��,2.3,21.3,79.2,0,60,0.52,135,�쓌,5,46
2011/8/13,9:00:00,90,��,3.6,21.7,77.5,0,60,0.69,90,��,5.9,52
2011/8/13,10:00:00,135,�쓌,2.9,22.6,71.7,0,60,0.83,113,���쓌,6.3,59
2011/8/13,11:00:00,180,��,4.5,22.2,71.4,0,60,0.92,180,��,8.5,30
2011/8/13,12:00:00,158,��쓌,3.6,22.3,75,0,60,0.96,180,��,9,1
2011/8/13,13:00:00,135,�쓌,3.4,22.3,77.3,0,60,0.93,135,�쓌,8.4,28
2011/8/13,14:00:00,135,�쓌,2.9,22.1,81.1,0,60,0.83,135,�쓌,7.4,28
2011/8/13,15:00:00,68,���k��,0.8,24.5,70.1,0,60,0.65,113,���쓌,4.9,8
2011/8/13,16:00:00,68,���k��,4.4,22.6,76.8,0,60,0.49,68,���k��,6,49
2011/8/13,17:00:00,68,���k��,3.4,21.1,83.5,0,60,0.34,68,���k��,6,8
2011/8/13,18:00:00,68,���k��,0.9,20,88.9,0,39,0.14,45,�k��,5.1,5
2011/8/13,19:00:00,45,�k��,1.4,17.6,94.4,0,0,0.02,45,�k��,2.5,53
2011/8/13,20:00:00,23,�k�k��,1.5,17.1,96.1,0,0,0.01,23,�k�k��,2.5,56
2011/8/13,21:00:00,315,�k��,0.4,15.6,97.7,0,0,0.01,360,�k,2.5,9
2011/8/13,22:00:00,293,���k��,1.2,14.9,98.4,0,0,0.01,293,���k��,1.7,57
2011/8/13,23:00:00,293,���k��,1.8,15.3,98.7,0,0,0.01,293,���k��,2.4,51
2011/8/13,0:00:00,270,��,1.5,15.5,98.8,0,0,0.01,293,���k��,2.5,57
2011/8/14,1:00:00,270,��,1.7,15.2,98.8,0,0,0.01,270,��,2.5,12
2011/8/14,2:00:00,248,���쐼,0.9,15.7,98.8,0,0,0.01,270,��,2.5,15
2011/8/14,3:00:00,270,��,0.6,15.5,98.7,0,0,0.01,293,���k��,1.5,57
2011/8/14,4:00:00,270,��,0.4,15.6,98.6,0,0,0.01,293,���k��,2.9,10
2011/8/14,5:00:00,270,��,0.4,16.1,98.6,0,0,0.01,293,���k��,2,25
2011/8/14,6:00:00,315,�É�,0,17.4,98,0,0,0.07,293,���k��,1.8,5
2011/8/14,7:00:00,45,�É�,0,18.8,93.7,0,45,0.16,360,�k,1.4,39
2011/8/14,8:00:00,68,���k��,0.9,20,91,0,60,0.28,90,��,2.1,59
2011/8/14,9:00:00,68,���k��,0.9,23.3,85.2,0,60,0.41,90,��,2.9,4
2011/8/14,10:00:00,113,���쓌,1.7,21.4,86,0,60,0.45,135,�쓌,4,29
2011/8/14,11:00:00,158,��쓌,1.8,21.1,84.7,0,60,0.54,113,���쓌,3.4,15
2011/8/14,12:00:00,158,��쓌,1.8,21.7,83.2,0,60,0.48,180,��,3.3,53
2011/8/14,13:00:00,158,��쓌,0.8,22.5,83.8,0,60,0.4,225,�쐼,3.6,16
2011/8/14,14:00:00,135,�쓌,1.2,22.3,84,0,60,0.3,135,�쓌,2.3,56
2011/8/14,15:00:00,203,��쐼,0.8,21.7,88.3,0,37,0.13,158,��쓌,2.3,14
2011/8/14,16:00:00,315,�k��,0.5,21.7,96.1,0,0,0.04,225,�쐼,1.9,3
2011/8/14,17:00:00,203,��쐼,1.3,22.2,92.5,0.5,0,0.06,203,��쐼,2.5,51
2011/8/14,18:00:00,203,��쐼,2.9,21.9,87.5,0,0,0.04,180,��,6.3,58
2011/8/14,19:00:00,225,�쐼,2.9,20.4,93,0,0,0.01,203,��쐼,5.8,48
2011/8/14,20:00:00,225,�쐼,3.5,22.4,87.7,0,0,0.01,203,��쐼,6.5,56
2011/8/14,21:00:00,203,��쐼,2.8,22.3,85.8,0,0,0.01,203,��쐼,7.4,35
2011/8/14,22:00:00,180,��,3.6,23.6,80.9,0,0,0.01,180,��,6.9,11
2011/8/14,23:00:00,180,��,3.1,20,91.1,0,0,0.01,180,��,6.9,58
2011/8/14,0:00:00,203,��쐼,1.8,18.5,96.8,0.5,0,0.01,180,��,8.9,27
2011/8/15,1:00:00,203,��쐼,3.8,19.4,95.8,0,0,0.01,203,��쐼,6.6,57
2011/8/15,2:00:00,270,��,1.2,20.8,94.4,0.5,0,0.01,248,���쐼,7.2,23
2011/8/15,3:00:00,135,�É�,0,19.8,97.8,4.5,0,0.01,225,�쐼,3.8,5
2011/8/15,4:00:00,225,�쐼,1,20.2,98.2,2.5,0,0.01,293,���k��,2.5,30
2011/8/15,5:00:00,293,���k��,0.8,20.6,98.3,0.5,0,0.01,203,��쐼,4.1,7
2011/8/15,6:00:00,23,�k�k��,0.4,20.7,98.4,0,0,0.02,23,�k�k��,1.5,43
2011/8/15,7:00:00,338,�k�k��,0.9,21.6,98.3,0.5,5,0.07,315,�k��,2.3,43
2011/8/15,8:00:00,360,�k,1.1,24.1,92.8,0,60,0.28,360,�k,2.5,54
2011/8/15,9:00:00,68,�É�,0.1,25.3,87.9,0,60,0.36,23,�k�k��,2.2,5
2011/8/15,10:00:00,158,�É�,0.1,25.2,90.4,0,60,0.34,113,���쓌,2.4,29
2011/8/15,11:00:00,135,�쓌,1.5,24.9,88,0,60,0.46,158,��쓌,3.5,40
2011/8/15,12:00:00,158,��쓌,2.5,23.7,85.1,0,60,0.32,158,��쓌,5.2,48
2011/8/15,13:00:00,203,��쐼,3.3,25.4,81.4,0,60,0.38,225,�쐼,6.6,29
2011/8/15,14:00:00,203,��쐼,2.7,25.7,79.9,0,60,0.41,180,��,6.2,16
2011/8/15,15:00:00,203,��쐼,2.3,25.6,82.7,0,56,0.19,203,��쐼,5.1,14
2011/8/15,16:00:00,203,��쐼,2.1,25.2,83.5,0,53,0.15,180,��,3.9,16
2011/8/15,17:00:00,203,��쐼,2.6,23.4,84.9,0,10,0.1,180,��,5.3,32
2011/8/15,18:00:00,68,���k��,0.5,23.1,89.6,0,0,0.05,180,��,4.4,1
2011/8/15,19:00:00,248,���쐼,0.8,21.9,93,0,0,0.01,225,�쐼,2.6,54
2011/8/15,20:00:00,338,�k�k��,0.4,22.6,91.6,0,0,0.01,203,��쐼,4.4,22
2011/8/15,21:00:00,68,���k��,3,23.3,92.7,0,0,0.01,68,���k��,4.6,59
2011/8/15,22:00:00,45,�k��,2.2,21.7,91.3,0,0,0.01,45,�k��,4.8,55
2011/8/15,23:00:00,45,�k��,0.3,20.8,92.9,0,0,0.01,45,�k��,4.7,14
2011/8/15,0:00:00,45,�k��,1.1,21,94.3,0,0,0.01,23,�k�k��,2.8,28
2011/8/16,1:00:00,45,�k��,3,21,94.9,0,0,0.01,90,��,5.1,54
2011/8/16,2:00:00,68,���k��,4.1,20.4,95.6,0,0,0.01,68,���k��,7.8,30
2011/8/16,3:00:00,45,�k��,2.5,20.2,95.4,0,0,0.01,45,�k��,7.5,39
2011/8/16,4:00:00,45,�k��,2.5,19.8,96.1,0,0,0.01,45,�k��,6,41
2011/8/16,5:00:00,68,���k��,1.5,19.9,95,0,0,0.01,68,���k��,4.6,33
2011/8/16,6:00:00,90,��,0.6,19.3,96.2,0,0,0.02,68,���k��,2.9,26
2011/8/16,7:00:00,90,��,1.9,19.6,95,0,0,0.04,68,���k��,3.5,50